STARLINK-2191 (48565 NORAD) Tracking and Keplerian Element Data

This shows tracking and keplerian element data for the satellite.

Feedback or suggestion? Click here.




ElementValue
Catalog48565
NameSTARLINK-2191
Epoch Orbit1199
Epoch Day214.71971897
Epoch Year2021
RAAN113.2757
Inclination53.0583
Eccentricity0.0002186
Argument of Perigee86.4991
Mean Anonmoly273.6248
Mean Motion15.06390006
Decay Rate5.62E-06
L11 48565U 21041N 21214.71971897 .00000562 00000-0 56665-4 0 9990
L22 48565 53.0583 113.2757 0002186 86.4991 273.6248 15.06390006 11996

Live tracking and technical data element details for STARLINK-2191 (NORAD 48565). STARLINK-2191 can be tracked NOW for your location showing map with azimuth and elevation plus other details from your city location.

Track the satellite on the map from your city or location and see movement details for azimuth, elevation, latitude, longitude, range, height, and movement on the map or in text.







IsCatalogInMostPopularTable: catalog: 48565, numindb: 21
Update: records affected: 1



GetName: 48565 STARLINK-2191

Hit Count: updated at: Tue, 03 Aug 2021 19:54:15 GMT